Preview of NWS' New Version of Forecast
This preview is not operational and should not be used for support decisions.

Regional Weather Roundup (RWR)

Issued by Gray - Portland, ME (GYX)

                            
000
ASUS41 KGYX 220705
RWRGYX
WEATHER ROUNDUP FOR MAINE AND NEW HAMPSHIRE
NATIONAL WEATHER SERVICE GRAY ME
300 AM EDT MON APR 22 2019

MEZ002-005-006-010-012-015-018-020-021-024-026-027-029-220800-
MAINE
  
CITY           SKY/WX    TMP DP  RH WIND       PRES   REMARKS
PORTLAND       FOG       45  44  97 N3        30.11F VSB 3/4          
SANFORD        LGT RAIN  48  48 100 CALM      30.10F VSB 3/4          
BAR HARBOR     FOG       45  45 100 CALM      30.15F VSB 1/2          
WISCASSET      CLOUDY    46  45  96 CALM      30.13F                  
ROCKLAND       FOG       43  43 100 CALM      30.14S VSB 1/2          
FRYEBURG       FOG       51  50  96 CALM      30.12S VSB 1/4          
LEWISTONAUBURN FOG       49  49 100 CALM      30.12S VSB 1/2          
AUGUSTA        FOG       49  49 100 S3        30.13R VSB 1/4          
WATERVILLE     FOG       51  51 100 CALM      30.11R VSB 1/4          
BANGOR         FOG       48  48 100 S6        30.14F VSB 1/4          
GREENVILLE       N/A     47  46  97 NE3       30.11R                  
MILLINOCKET    FOG       48  46  93 CALM      30.13R VSB 1/2          
HOULTON        CLOUDY    52  52 100 N6        30.12R FOG              
PRESQUE ISLE   FOG       43  43 100 CALM      30.14R VSB 1/2          
FRENCHVILLE    FAIR      46  40  79 NW8       30.13R                  
CARIBOU        FAIR      45  43  93 CALM      30.12R                  
$$

NHZ002-005-008-009-011-012-014-220800-
NEW HAMPSHIRE
  
CITY           SKY/WX    TMP DP  RH WIND       PRES   REMARKS
PORTSMOUTH     CLOUDY    50  50  99 CALM      30.08F                  
ROCHESTER      FAIR      51  51 100 NW3       30.09F FOG              
NASHUA         FAIR      51  51 100 CALM      30.10F                  
MANCHESTER     FAIR      54  52  93 CALM      30.08F                  
CONCORD        FOG       48  48 100 CALM      30.10S VSB 1/4          
LACONIA        FOG       50  50 100 CALM      30.11R VSB 1/4          
PLYMOUTH       FOG       44  43  98 CALM      30.11S VSB 1/4          
BERLIN         CLOUDY    43  41  93 CALM      30.13R FOG              
WHITEFIELD     FAIR      42  39  89 CALM      30.12R                  
JAFFREY        CLOUDY    47  45  93 CALM      30.11S                  
KEENE          CLOUDY    49  49 100 SW3       30.11S FOG              
LEBANON        FAIR      48  44  86 CALM      30.10F FOG              
MT WASHINGTON  PTCLDY    39  34  81 E5          N/A                   
$$

VTZ005-007-008-220800-
VERMONT
  
CITY           SKY/WX    TMP DP  RH WIND       PRES   REMARKS
ST JOHNSBURY     N/A     52  49  89 MISG      30.12R                  
MONTPELIER     FAIR      49  47  93 CALM      30.18R                  
BURLINGTON     FAIR      52  45  77 NE6       30.17R                  
$$

MAZ007-012-024-CTZ003-RIZ002-NYZ038-NYZ072-220800-
SOUTHERN NEW ENGLAND AND NY
  
CITY           SKY/WX    TMP DP  RH WIND       PRES   REMARKS
BOSTON         CLOUDY    53  50  89 S5        30.10F                  
WORCESTER      FAIR      50  48  93 W3        30.10S                  
NANTUCKET      FOG       53  53 100 CALM      30.08F VSB 1/4          
PROVIDENCE     FOG       48  48 100 CALM      30.10F VSB 3/4          
HARTFORD       MOCLDY    51  49  92 CALM      30.09F                  
ALBANY         MOCLDY    51  43  74 NW7       30.13R                  
NEW YORK CITY  CLOUDY    51  46  83 NE6       30.07F                  
$$

ANZ081-ANZ082-ANZ150-NHZ014-MEZ023>029-220800-
COASTAL MARINE OBSERVATIONS
  
STATION/POSITION TIME  TEMP    WIND        PRES    WAVE
                       AIR SEA DIR/SP/G            HT/PER
                 (UTC) (F)     (DEG/KT/KT) (MB)    (FT/S)
ISLE OF SHOALS   0600   51     200/ 13/ 13 1018.9F
$$

.............KEY..............
   WCI - WIND CHILL
   TC  - TEMPERATURE IN CELSIUS
   VSB - VISIBILITY IN MILES
   HX  - HEAT INDEX
   FAIR- INDICATES FEW OR NO CLOUDS BELOW 12,000 FT, WITH NO 
         SIGNIFICANT WEATHER AND/OR OBSTRUCTIONS TO VISIBILITY.